Tracking 25656 objects as of 21-May-2022
HD Live streaming from Space Station
objects crossing your sky now

ONEWEB-0395

Track ONEWEB-0395 now!
10-day predictions
ONEWEB-0395 is classified as:


NORAD ID: 50475
Int'l Code: 2021-132G
Perigee: 1,223.4 km
Apogee: 1,226.3 km
Inclination: 88.0 °
Period: 109.8 minutes
Semi major axis: 7595 km
RCS: Unknown
Launch date: December 27, 2021
Source: United Kingdom (UK)
Launch site: TYURATAM MISSILE AND SPACE COMPLEX (TTMTR)
aabbcc
Your satellite tracking list
Your tracking list is empty




NASA's NSSDC Master Catalog

Two Line Element Set (TLE):
1 50475U 21132G   22141.25001157  .00002636  00000-0  73999-2 0  9997
2 50475  87.9834 316.7270 0001854 105.2210   4.7492 13.11411306 21973
Source of the keplerian elements: AFSPC